Tracking 18784 objects as of 18-August-2017
HD Live streaming from Space Station
objects crossing your sky now

DMSP 5D-2 F11 DEB

Track DMSP 5D-2 F11 DEB now!
10-day predictions


NORAD ID: 29070
Int'l Code: 1991-082BR
Perigee: 783.4 km
Apogee: 802.4 km
Inclination: 98.8 °
Period: 100.6 minutes
Semi major axis: 7163 km
RCS: 0.0089 m2 (small)
Launch date: November 28, 1991
Source: United States (US)
Launch site: AIR FORCE WESTERN TEST RANGE (AFWTR)

Note: This is SATELLITE DEBRIS
Your satellite tracking list
Your tracking list is empty





NASA's NSSDC Master Catalog

Two Line Element Set (TLE):
1 29070U 91082BR  17228.53036928  .00000863  00000-0  33963-3 0  9998
2 29070  98.7794 250.1462 0013268 343.5911  16.4840 14.31787053674324
Source of the keplerian elements: AFSPC